[[{"header":{"parameterUnit":"m.s-1","parameterCategory":1,"la1":30.2991,"la2":30.254,"lo1":-89.0895,"lo2":-89.0444,"dy":0.0017,"dx":0.0017,"nx":28,"ny":28,"refTime":"2024-04-19T03:00:00:Z","depth":0,"parameterNumber":2,"parameterNumberName":"U-component_of_WINDS"},"data":[0,0,0,0,0,0,0,0,0,0,0,0,0,0,0,0,0,0,0,0,0,0,0,0,0,0,0,0,0,0,0,0,0,0,0,0,0,0,0,0,0,0,0,0,0,0,0,0,0,0,0,0,0,0,0,0,0,0,-0.0325,-0.0324,0,-0.0236,-0.0235,-0.0234,-0.017,-0.0169,-0.0169,-0.0168,-0.0076,-0.0074,-0.0072,0,0,0,0,0,0,0,0,0,0,0,0,0,-0.0438,-0.0437,-0.0325,-0.0324,-0.0323,-0.0236,-0.0235,-0.0234,-0.017,-0.0169,-0.0169,-0.0168,-0.0077,-0.0074,-0.0072,0,0,0,0,0,0,0,0,0,0,0,0,0,-0.0373,-0.0436,-0.0325,-0.0281,-0.0276,-0.0236,-0.0235,-0.0233,-0.017,-0.0169,-0.0168,-0.0168,-0.0077,-0.0075,-0.0072,-0.0069,0,0,-0.0063,-0.0061,0,0,0,0,0,0,0,0,-0.0377,-0.0369,-0.0288,-0.0284,-0.0278,-0.0213,-0.0241,-0.0178,-0.017,-0.021,-0.0168,-0.0167,-0.0122,-0.0116,-0.0101,-0.0065,-0.0061,-0.0062,-0.0061,-0.0059,-0.0059,0,0,0,0,0,0,0,-0.0382,-0.0373,-0.029,-0.0287,-0.0281,-0.0264,-0.0254,-0.0229,-0.0172,-0.0207,-0.0202,-0.0192,-0.0119,-0.0104,-0.0098,-0.006,-0.0063,-0.006,-0.0058,-0.0057,-0.0017,-0.0018,0,0,0,0,0,0,-0.0393,-0.0377,-0.0293,-0.0287,-0.0327,-0.0263,-0.0252,-0.0235,-0.0172,-0.0161,-0.0193,-0.0189,-0.0109,-0.0101,-0.0094,-0.0087,-0.0059,-0.0057,-0.0055,-0.0017,-0.0018,-0.0018,0,0,0,0,0,0,-0.0396,-0.0386,-0.0296,-0.0331,-0.0318,-0.0262,-0.0243,-0.0233,-0.0218,-0.0161,-0.0151,-0.0187,-0.0108,-0.0099,-0.0076,-0.0083,-0.0055,-0.0053,-0.0016,-0.0017,-0.0018,-0.0073,0,0,0,0,0,0,-0.0399,-0.0388,-0.0387,-0.0331,-0.0316,-0.028,-0.0244,-0.0232,-0.0213,-0.0208,-0.0153,-0.0144,-0.0107,-0.0081,-0.0073,-0.0078,-0.005,-0.0015,-0.0016,-0.0018,-0.007,-0.0076,-0.0081,0,0,0,0,0,-0.0404,-0.0406,-0.0387,-0.0377,-0.0314,-0.028,-0.0272,-0.0229,-0.0214,-0.0212,-0.0176,-0.0145,-0.0084,-0.0079,-0.007,-0.0074,-0.0014,-0.0016,-0.0017,-0.0068,-0.0075,-0.0081,0,0,0,0,0,0,-0.0463,-0.0397,-0.0376,-0.036,-0.0326,-0.027,-0.0266,-0.0238,-0.0208,-0.0204,-0.0152,-0.0141,-0.0124,-0.0097,-0.0093,-0.0069,-0.0045,-0.0045,-0.0087,-0.0093,-0.0098,-0.0104,-0.0048,0,0,0,0,0,-0.0474,-0.0453,-0.0397,-0.0388,-0.0372,-0.0322,-0.0306,-0.0276,-0.0239,-0.0225,-0.0187,-0.0152,-0.0124,-0.0107,-0.0079,-0.0066,-0.0053,-0.0065,-0.007,-0.0075,-0.0075,-0.0066,-0.007,-0.0024,-0.0024,-0.0024,0,0,-0.0497,-0.0459,-0.0449,-0.0399,-0.0369,-0.0348,-0.0311,-0.029,-0.0273,-0.0221,-0.0197,-0.0169,-0.0126,-0.0109,-0.0099,-0.0086,-0.0085,-0.0077,-0.0081,-0.0078,-0.0068,-0.0072,-0.0076,-0.0025,-0.0024,-0.0024,0,0,-0.0528,-0.0497,-0.0486,-0.0457,-0.0413,-0.038,-0.0377,-0.0325,-0.0304,-0.0279,-0.024,-0.0219,-0.0173,-0.0144,-0.0123,-0.0143,-0.0114,-0.0136,-0.0162,-0.0154,-0.0158,-0.0161,-0.0167,-0.017,-0.0136,-0.0136,-0.0136,0,-0.0562,-0.0529,-0.0484,-0.0465,-0.0445,-0.0397,-0.0385,-0.0359,-0.0308,-0.0295,-0.0281,-0.0221,-0.0189,-0.0164,-0.0169,-0.0154,-0.0149,-0.0141,-0.0161,-0.0163,-0.0165,-0.0171,-0.0174,-0.0139,-0.0139,-0.0138,-0.0138,0,-0.0572,-0.055,-0.0546,-0.0498,-0.0477,-0.0462,-0.0415,-0.0399,-0.0371,-0.0339,-0.0314,-0.0274,-0.0237,-0.0229,-0.0201,-0.02,-0.0193,-0.0171,-0.0146,-0.0173,-0.0178,-0.018,-0.0143,-0.0142,-0.0141,-0.0141,0,0,-0.0638,-0.0565,-0.0565,-0.0542,-0.049,-0.0471,-0.0454,-0.0418,-0.0404,-0.0371,-0.0354,-0.0317,-0.0296,-0.0272,-0.0241,-0.0234,-0.0252,-0.0212,-0.0211,-0.0221,-0.0247,-0.0264,-0.0267,-0.0233,-0.0233,-0.0233,-0.025,0,-0.066,-0.0627,-0.0586,-0.0566,-0.0544,-0.0499,-0.0484,-0.045,-0.042,-0.0396,-0.0363,-0.0337,-0.0311,-0.0297,-0.0288,-0.0252,-0.0256,-0.025,-0.0216,-0.0216,-0.0228,-0.0269,-0.0287,-0.0305,-0.0252,-0.0252,-0.0252,0,-0.0681,-0.065,-0.0629,-0.0578,-0.0567,-0.0554,-0.0517,-0.0496,-0.0457,-0.0435,-0.0409,-0.0376,-0.0355,-0.0333,-0.0303,-0.03,-0.0284,-0.0264,-0.0263,-0.0258,-0.0235,-0.0265,-0.031,-0.0312,-0.0255,-0.0254,-0.0254,0,-0.0731,-0.0683,-0.0664,-0.0646,-0.0587,-0.0579,-0.0553,-0.0513,-0.0494,-0.0461,-0.0448,-0.0414,-0.0395,-0.0369,-0.0328,-0.0316,-0.0302,-0.0277,-0.0283,-0.0284,-0.0281,-0.0282,-0.0324,-0.0272,-0.0272,-0.0272,-0.0272,0,-0.0759,-0.0748,-0.0685,-0.0673,-0.0659,-0.0612,-0.0599,-0.0569,-0.0534,-0.0515,-0.0474,-0.0457,-0.0403,-0.038,-0.0347,-0.0327,-0.0319,-0.03,-0.0292,-0.0304,-0.0306,-0.0292,-0.0289,-0.0273,-0.0273,-0.0273,-0.0272,0,-0.0812,-0.0769,-0.0745,-0.0691,-0.0677,-0.0669,-0.0622,-0.0608,-0.0576,-0.0553,-0.0545,-0.0494,-0.0464,-0.042,-0.0377,-0.0355,-0.034,-0.0326,-0.0353,-0.0348,-0.0356,-0.0356,-0.039,-0.0392,-0.034,-0.0341,-0.0341,0,-0.0832,-0.0822,-0.0767,-0.0752,-0.0728,-0.0704,-0.0684,-0.0638,-0.0618,-0.0573,-0.0565,-0.0532,-0.0503,-0.0458,-0.0417,-0.0384,-0.0369,-0.0383,-0.0363,-0.0376,-0.0368,-0.0369,-0.0368,-0.0388,-0.0388,-0.0389,-0.039,0,-0.0874,-0.0853,-0.0826,-0.0792,-0.077,-0.0741,-0.0709,-0.0699,-0.0646,-0.0626,-0.0596,-0.0574,-0.053,-0.0498,-0.0459,-0.0432,-0.0402,-0.0396,-0.0396,-0.0408,-0.0424,-0.0415,-0.0365,-0.0395,-0.0395,-0.0394,-0.0394,-0.0394,-0.091,-0.0899,-0.0859,-0.083,-0.0802,-0.0773,-0.0758,-0.0724,-0.0697,-0.0658,-0.0633,-0.0604,-0.0564,-0.0509,-0.0484,-0.046,-0.0447,-0.0446,-0.0446,-0.0447,-0.0451,-0.0428,-0.0453,-0.0452,-0.0452,-0.0452,-0.0452,0,-0.0949,-0.0921,-0.0895,-0.0853,-0.083,-0.0804,-0.0768,-0.075,-0.0725,-0.0691,-0.0664,-0.0629,-0.0597,-0.0554,-0.0519,-0.0509,-0.0494,-0.0501,-0.0501,-0.0495,-0.0465,-0.0468,-0.0514,-0.0514,-0.0514,-0.0514,-0.0514,-0.0514,-0.0967,-0.0946,-0.0921,-0.0886,-0.0857,-0.0829,-0.081,-0.0784,-0.0756,-0.0719,-0.0693,-0.0665,-0.0627,-0.0589,-0.0559,-0.0547,-0.0536,-0.0547,-0.0531,-0.0503,-0.0498,-0.0492,-0.0495,-0.0546,-0.0546,-0.0564,-0.0564,-0.0564]},{"header":{"parameterUnit":"m.s-1","parameterCategory":1,"la1":30.2991,"la2":30.254,"lo1":-89.0895,"lo2":-89.0444,"dy":0.0017,"dx":0.0017,"nx":28,"ny":28,"refTime":"2024-04-19T03:00:00:Z","depth":0,"parameterNumber":3,"parameterNumberName":"V-component_of_WINDS"},"data":[0,0,0,0,0,0,0,0,0,0,0,0,0,0,0,0,0,0,0,0,0,0,0,0,0,0,0,0,0,0,0,0,0,0,0,0,0,0,0,0,0,0,0,0,0,0,0,0,0,0,0,0,0,0,0,0,0,0,2.1873,2.1872,0,2.1803,2.1802,2.1801,2.1819,2.1821,2.1822,2.1823,2.1746,2.1742,2.1739,0,0,0,0,0,0,0,0,0,0,0,0,0,2.2017,2.2014,2.1873,2.1872,2.1871,2.1803,2.1802,2.1801,2.1819,2.1821,2.1822,2.1824,2.1747,2.1743,2.1739,0,0,0,0,0,0,0,0,0,0,0,0,0,2.1951,2.2013,2.1873,2.1872,2.1871,2.1803,2.1802,2.1801,2.1819,2.1821,2.1823,2.1825,2.1748,2.1743,2.1738,2.1665,0,0,2.1723,2.172,0,0,0,0,0,0,0,0,2.1955,2.1946,2.1873,2.1872,2.1871,2.1822,2.1824,2.1755,2.1818,2.1838,2.1823,2.1826,2.1769,2.1762,2.1744,2.1661,2.1658,2.1722,2.1719,2.1717,2.1715,0,0,0,0,0,0,0,2.1959,2.1949,2.1845,2.1872,2.1871,2.1873,2.1866,2.1811,2.1792,2.1837,2.1838,2.183,2.1769,2.1749,2.1743,2.1656,2.1722,2.1718,2.1715,2.1713,2.1508,2.1506,0,0,0,0,0,0,2.1966,2.1953,2.1847,2.1843,2.1919,2.1869,2.1861,2.1836,2.1793,2.1789,2.1828,2.1831,2.1757,2.1749,2.174,2.165,2.1717,2.1712,2.1709,2.1511,2.1508,2.1505,0,0,0,0,0,0,2.1969,2.1956,2.185,2.1898,2.1885,2.1864,2.1835,2.1833,2.1814,2.1787,2.1783,2.1812,2.1758,2.1747,2.1683,2.1648,2.171,2.1705,2.1513,2.151,2.1506,2.1471,0,0,0,0,0,0,2.1973,2.1957,2.193,2.1897,2.1882,2.1796,2.1833,2.183,2.1805,2.1809,2.177,2.1766,2.1759,2.1691,2.1678,2.1642,2.1701,2.1516,2.1512,2.1507,2.1475,2.1467,2.146,0,0,0,0,0,2.1978,2.1922,2.1929,2.1916,2.1849,2.1794,2.1785,2.178,2.1803,2.1774,2.1757,2.1767,2.1654,2.1684,2.167,2.1632,2.1519,2.1513,2.1508,2.1479,2.1469,2.146,0,0,0,0,0,0,2.1949,2.1918,2.1925,2.1857,2.1829,2.1798,2.1762,2.1769,2.1732,2.1736,2.1729,2.172,2.1655,2.1637,2.1671,2.1558,2.1589,2.1581,2.1572,2.1562,2.1554,2.1559,2.1697,0,0,0,0,0,2.1935,2.1896,2.187,2.1812,2.1798,2.1782,2.1758,2.1757,2.1726,2.1713,2.1691,2.1659,2.1617,2.1589,2.1548,2.1473,2.1464,2.144,2.1432,2.1426,2.1418,2.1376,2.1365,2.1487,2.1487,2.1488,0,0,2.1905,2.1883,2.1858,2.1806,2.1784,2.1741,2.1772,2.1725,2.1693,2.1706,2.1645,2.1627,2.1591,2.1522,2.149,2.1505,2.1382,2.1419,2.1414,2.141,2.137,2.1358,2.1348,2.1484,2.1484,2.1485,0,0,2.1829,2.1809,2.1759,2.1737,2.1703,2.1693,2.1681,2.1649,2.1639,2.1578,2.1586,2.1547,2.1473,2.1447,2.1424,2.1338,2.1346,2.1325,2.1283,2.1242,2.1233,2.1224,2.1193,2.1181,2.1318,2.1318,2.1318,0,2.1796,2.1734,2.1732,2.1685,2.1661,2.1673,2.1621,2.1598,2.1552,2.1534,2.1552,2.146,2.1437,2.1361,2.134,2.1321,2.1306,2.1329,2.1235,2.1226,2.1218,2.1188,2.1176,2.1315,2.1315,2.1316,2.1316,0,2.1694,2.1651,2.1614,2.1572,2.1543,2.1494,2.1483,2.1454,2.1455,2.1443,2.138,2.1352,2.1306,2.1288,2.1287,2.1211,2.1221,2.1237,2.1268,2.1204,2.1175,2.1164,2.1312,2.1313,2.1313,2.1314,0,0,2.1597,2.1555,2.1541,2.1522,2.1486,2.1451,2.1402,2.1358,2.1333,2.1301,2.1258,2.1196,2.1211,2.1184,2.1181,2.1146,2.1078,2.1166,2.1165,2.1149,2.0991,2.0979,2.0966,2.1084,2.1081,2.108,2.0994,0,2.1517,2.1433,2.1429,2.1351,2.131,2.1321,2.1278,2.125,2.1237,2.1199,2.1184,2.114,2.1162,2.1147,2.1112,2.1094,2.1046,2.11,2.1042,2.104,2.105,2.0951,2.0938,2.0859,2.0983,2.0981,2.098,0,2.1413,2.1379,2.1298,2.1267,2.125,2.1211,2.1171,2.1135,2.1103,2.1096,2.1067,2.1069,2.1017,2.1051,2.0977,2.1014,2.099,2.0977,2.0974,2.0967,2.1005,2.0941,2.0834,2.0822,2.0962,2.0964,2.0965,0,2.1349,2.1284,2.1226,2.1209,2.1173,2.1145,2.1128,2.1098,2.1072,2.1036,2.1019,2.0977,2.0953,2.092,2.0909,2.0935,2.0836,2.0869,2.0827,2.0827,2.0805,2.0806,2.0691,2.0791,2.0791,2.0791,2.0791,0,2.126,2.1209,2.1197,2.1162,2.1105,2.1101,2.1044,2.1028,2.1002,2.0962,2.0968,2.093,2.092,2.0879,2.0871,2.081,2.08,2.0791,2.0789,2.079,2.0791,2.0773,2.0778,2.0788,2.0789,2.0789,2.079,0,2.1179,2.1169,2.1107,2.1078,2.1069,2.1028,2.1002,2.0967,2.0956,2.0905,2.0893,2.0874,2.0827,2.0814,2.0757,2.0751,2.068,2.0683,2.0691,2.0691,2.0649,2.0653,2.0518,2.05,2.0612,2.0611,2.061,0,2.1122,2.1083,2.1051,2.1026,2.1008,2.0967,2.0941,2.0935,2.0908,2.0868,2.0837,2.0792,2.0755,2.0678,2.0658,2.0614,2.0616,2.0572,2.0609,2.0611,2.0614,2.0616,2.0612,2.0564,2.0563,2.0562,2.0561,0,2.1022,2.1019,2.0982,2.0944,2.0913,2.0882,2.0852,2.083,2.082,2.0788,2.0741,2.0712,2.0655,2.0609,2.0564,2.0545,2.055,2.055,2.0538,2.0538,2.0543,2.0539,2.0671,2.0553,2.0554,2.0554,2.0555,2.0555,2.095,2.0916,2.0888,2.0847,2.0824,2.0796,2.0762,2.0747,2.0708,2.0662,2.0661,2.0609,2.0577,2.0519,2.0497,2.0455,2.0468,2.045,2.0446,2.0441,2.0437,2.0551,2.0447,2.0447,2.0447,2.0448,2.0448,0,2.0849,2.0832,2.0795,2.0753,2.072,2.0731,2.0699,2.067,2.0625,2.0596,2.056,2.0505,2.046,2.0437,2.0392,2.0363,2.0364,2.0351,2.0353,2.0348,2.0429,2.0444,2.0351,2.0351,2.0351,2.0351,2.0351,2.0351,2.0793,2.0736,2.073,2.0662,2.0644,2.0595,2.0576,2.0549,2.0526,2.0465,2.0429,2.0415,2.0387,2.034,2.0299,2.0293,2.0276,2.0261,2.0256,2.0332,2.0342,2.0352,2.0365,2.0258,2.0257,2.0179,2.0178,2.0177]}]]